sat.trackr.live / text

‹ back to catalog

BEIDOU-3 M6 (C24)

NORAD 43582 · 2018-062B

PAYLOAD ACTIVE UNKNOWN

§ Identity

Operator
Country
PRC
Launch date
2018-07-29
Launch site
XICLF
Launch vehicle
Mass (kg)
RCS (m²)

Purposes: nav

External: N2YO · Heavens-Above · Gunter

§ Orbital elements

Epoch: 2026-09-18T09:37:51.068064Z

Period
773.24 min
Inclination
54.0821°
Eccentricity
0.0006579
Mean motion
1.86228376 rev/d
Perigee alt
21,510.0 km
Apogee alt
21,546.7 km
Semi-major
27,906.5 km
B*
0.0000e+0
RAAN
179.1259°
Arg perigee
30.9685°
Mean anomaly
329.0923°
Rev number
5,537

§ Raw data

BEIDOU-3 M6 (C24)1 43582U 18062B   26261.40128551 -.00000021  00000+0  00000+0 0  99942 43582  54.0821 179.1259 0006579  30.9685 329.0923  1.86228376 55377

JSON: /api/v1/satellites/43582 · /tle

For live sub-satellite position, see the globe view (requires WebGL).

§ Visibility from observer

Set your observer location to see the next 7 days of passes ≥ 10°. The values pass through the URL so the page stays shareable.

No JS? Fill the form by hand. The geolocation button needs JavaScript.